| time (UTC) | temp F | wind direction | speed MPH | gust MPH | rain 1hr in | rain 24hr in | rain mn in | humidity % | barometer mb |
| 20260507194720 | 62 | 228 | 12.0 | 15.0 | 0.00 | 0.00 | 0.00 | 57 | 1029.0 |
| 20260507193721 | 62 | 226 | 11.0 | 16.0 | 0.00 | 0.00 | 0.00 | 58 | 1029.1 |
| 20260507193620 | 62 | 231 | 12.0 | 16.0 | 0.00 | 0.00 | 0.00 | 58 | 1029.1 |
| 20260507185720 | 60 | 221 | 13.0 | 17.0 | 0.00 | 0.00 | 0.00 | 61 | 1029.7 |
| 20260507184720 | 60 | 227 | 10.0 | 13.0 | 0.00 | 0.00 | 0.00 | 61 | 1029.9 |
| 20260507183720 | 60 | 228 | 14.0 | 18.0 | 0.00 | 0.00 | 0.00 | 62 | 1029.9 |
| 20260507182819 | 60 | 225 | 15.0 | 19.0 | 0.00 | 0.00 | 0.00 | 62 | 1030.0 |
| 20260507181822 | 59 | 223 | 12.0 | 16.0 | 0.00 | 0.00 | 0.00 | 61 | 1030.2 |
| 20260507180820 | 59 | 229 | 13.0 | 18.0 | 0.00 | 0.00 | 0.00 | 63 | 1030.3 |
| 20260507174919 | 58 | 219 | 11.0 | 15.0 | 0.00 | 0.00 | 0.00 | 64 | 1030.5 |
| 20260507174820 | 58 | 223 | 12.0 | 15.0 | 0.00 | 0.00 | 0.00 | 64 | 1030.5 |
| 20260507173820 | 58 | 227 | 13.0 | 16.0 | 0.00 | 0.00 | 0.00 | 65 | 1030.6 |
| 20260507172819 | 58 | 215 | 12.0 | 17.0 | 0.00 | 0.00 | 0.00 | 65 | 1030.6 |
| 20260507171821 | 57 | 233 | 14.0 | 17.0 | 0.00 | 0.00 | 0.00 | 66 | 1030.8 |
| 20260507170919 | 57 | 216 | 10.0 | 15.0 | 0.00 | 0.00 | 0.00 | 66 | 1030.9 |
| 20260507165921 | 57 | 226 | 12.0 | 17.0 | 0.00 | 0.00 | 0.00 | 68 | 1030.8 |
| 20260507165819 | 57 | 226 | 11.0 | 18.0 | 0.00 | 0.00 | 0.00 | 69 | 1030.8 |
| 20260507163920 | 55 | 223 | 8.0 | 11.0 | 0.00 | 0.00 | 0.00 | 70 | 1030.9 |
| 20260507162922 | 55 | 225 | 13.0 | 18.0 | 0.00 | 0.00 | 0.00 | 70 | 1031.0 |
| 20260507162019 | 55 | 226 | 11.0 | 16.0 | 0.00 | 0.00 | 0.00 | 71 | 1030.9 |
| 20260507161020 | 55 | 228 | 14.0 | 20.0 | 0.00 | 0.00 | 0.00 | 71 | 1030.9 |
| 20260507154020 | 54 | 225 | 15.0 | 22.0 | 0.00 | 0.00 | 0.00 | 73 | 1031.1 |
| 20260507153021 | 54 | 225 | 14.0 | 20.0 | 0.00 | 0.00 | 0.00 | 73 | 1031.1 |
| 20260507151119 | 54 | 224 | 9.0 | 14.0 | 0.00 | 0.00 | 0.00 | 75 | 1031.2 |
| 20260507145219 | 53 | 224 | 11.0 | 16.0 | 0.00 | 0.00 | 0.00 | 76 | 1031.1 |
| 20260507143219 | 53 | 225 | 10.0 | 14.0 | 0.00 | 0.00 | 0.00 | 77 | 1031.0 |
| 20260507143119 | 53 | 228 | 10.0 | 13.0 | 0.00 | 0.00 | 0.00 | 77 | 1031.1 |
| 20260507142121 | 52 | 225 | 10.0 | 14.0 | 0.00 | 0.00 | 0.00 | 78 | 1031.0 |
| 20260507141119 | 52 | 222 | 10.0 | 13.0 | 0.00 | 0.00 | 0.00 | 78 | 1030.9 |
| 20260507140119 | 52 | 225 | 14.0 | 20.0 | 0.00 | 0.00 | 0.00 | 77 | 1030.8 |
| 20260507135219 | 52 | 224 | 14.0 | 18.0 | 0.00 | 0.00 | 0.00 | 77 | 1030.8 |
| 20260507134219 | 52 | 221 | 11.0 | 16.0 | 0.00 | 0.00 | 0.00 | 77 | 1030.6 |
| 20260507133221 | 52 | 222 | 11.0 | 14.0 | 0.00 | 0.00 | 0.00 | 78 | 1030.7 |
| 20260507132320 | 53 | 225 | 12.0 | 18.0 | 0.00 | 0.00 | 0.00 | 78 | 1030.6 |
| 20260507131419 | 53 | 226 | 12.0 | 18.0 | 0.00 | 0.00 | 0.00 | 78 | 1030.6 |
| 20260507125421 | 53 | 228 | 13.0 | 17.0 | 0.00 | 0.00 | 0.00 | 79 | 1030.6 |
| 20260507123421 | 53 | 225 | 12.0 | 17.0 | 0.00 | 0.00 | 0.00 | 79 | 1030.5 |
| 20260507122519 | 53 | 228 | 12.0 | 17.0 | 0.00 | 0.00 | 0.00 | 79 | 1030.5 |
| 20260507121520 | 53 | 224 | 12.0 | 14.0 | 0.00 | 0.00 | 0.00 | 79 | 1030.5 |
| 20260507120523 | 53 | 228 | 15.0 | 18.0 | 0.00 | 0.00 | 0.00 | 79 | 1030.5 |
| 20260507115521 | 53 | 225 | 12.0 | 16.0 | 0.00 | 0.00 | 0.00 | 79 | 1030.6 |
| 20260507114619 | 53 | 226 | 12.0 | 15.0 | 0.00 | 0.00 | 0.00 | 79 | 1030.5 |
| 20260507113620 | 53 | 206 | 15.0 | 19.0 | 0.00 | 0.00 | 0.00 | 80 | 1030.4 |
| 20260507111719 | 54 | 215 | 12.0 | 14.0 | 0.00 | 0.00 | 0.00 | 78 | 1030.4 |
| 20260507110722 | 54 | 219 | 12.0 | 20.0 | 0.00 | 0.00 | 0.00 | 79 | 1030.5 |
| 20260507105728 | 54 | 211 | 15.0 | 21.0 | 0.00 | 0.00 | 0.00 | 79 | 1030.6 |
| 20260507104821 | 54 | 215 | 12.0 | 15.0 | 0.00 | 0.00 | 0.00 | 79 | 1030.6 |
| 20260507104721 | 54 | 219 | 11.0 | 16.0 | 0.00 | 0.00 | 0.00 | 79 | 1030.6 |
| 20260507103819 | 54 | 222 | 11.0 | 15.0 | 0.00 | 0.00 | 0.00 | 79 | 1030.6 |
| 20260507100819 | 54 | 222 | 14.0 | 18.0 | 0.00 | 0.00 | 0.00 | 79 | 1030.6 |
| 20260507095822 | 54 | 224 | 15.0 | 20.0 | 0.00 | 0.00 | 0.00 | 79 | 1030.5 |
| 20260507093820 | 54 | 222 | 17.0 | 23.0 | 0.00 | 0.00 | 0.00 | 78 | 1030.6 |
| 20260507092822 | 55 | 215 | 14.0 | 20.0 | 0.00 | 0.00 | 0.00 | 78 | 1030.6 |
| 20260507091821 | 55 | 226 | 14.0 | 21.0 | 0.00 | 0.00 | 0.00 | 78 | 1030.8 |
| 20260507090919 | 55 | 228 | 12.0 | 16.0 | 0.00 | 0.00 | 0.00 | 76 | 1030.6 |
| 20260507085922 | 55 | 226 | 18.0 | 27.0 | 0.00 | 0.00 | 0.00 | 77 | 1030.6 |
| 20260507084921 | 55 | 230 | 15.0 | 24.0 | 0.00 | 0.00 | 0.00 | 77 | 1030.6 |
| 20260507083921 | 55 | 232 | 15.0 | 20.0 | 0.00 | 0.00 | 0.00 | 77 | 1030.6 |
| 20260507082920 | 55 | 226 | 18.0 | 26.0 | 0.00 | 0.00 | 0.00 | 77 | 1030.3 |
| 20260507081921 | 55 | 229 | 17.0 | 25.0 | 0.00 | 0.00 | 0.00 | 76 | 1030.6 |
| 20260507080918 | 55 | 224 | 19.0 | 27.0 | 0.00 | 0.00 | 0.00 | 75 | 1030.7 |
| 20260507075019 | 56 | 224 | 18.0 | 22.0 | 0.00 | 0.00 | 0.00 | 76 | 1030.7 |
| 20260507074020 | 56 | 226 | 14.0 | 19.0 | 0.00 | 0.00 | 0.00 | 76 | 1030.6 |
| 20260507073118 | 56 | 226 | 14.0 | 19.0 | 0.00 | 0.00 | 0.00 | 75 | 1030.8 |
| 20260507072119 | 56 | 224 | 14.0 | 18.0 | 0.00 | 0.00 | 0.00 | 76 | 1030.8 |
| 20260507070121 | 57 | 226 | 19.0 | 25.0 | 0.00 | 0.00 | 0.00 | 75 | 1030.8 |
| 20260507065216 | 57 | 228 | 16.0 | 22.0 | 0.00 | 0.00 | 0.00 | 74 | 1030.7 |
| 20260507064215 | 57 | 223 | 16.0 | 21.0 | 0.00 | 0.00 | 0.00 | 75 | 1030.8 |
| 20260507063314 | 57 | 227 | 12.0 | 17.0 | 0.00 | 0.00 | 0.00 | 74 | 1030.8 |
| 20260507062316 | 57 | 222 | 17.0 | 21.0 | 0.00 | 0.00 | 0.00 | 75 | 1030.7 |
| 20260507061317 | 58 | 225 | 16.0 | 24.0 | 0.00 | 0.00 | 0.00 | 75 | 1030.7 |
| 20260507055317 | 58 | 224 | 14.0 | 19.0 | 0.00 | 0.00 | 0.00 | 76 | 1030.6 |
| 20260507054315 | 58 | 234 | 14.0 | 18.0 | 0.00 | 0.00 | 0.00 | 75 | 1030.6 |
| 20260507051316 | 59 | 225 | 12.0 | 17.0 | 0.00 | 0.00 | 0.00 | 75 | 1030.8 |
| 20260507050415 | 59 | 226 | 15.0 | 18.0 | 0.00 | 0.00 | 0.00 | 75 | 1030.7 |
| 20260507044418 | 60 | 225 | 17.0 | 24.0 | 0.00 | 0.00 | 0.00 | 74 | 1030.6 |
| 20260507043415 | 60 | 225 | 18.0 | 24.0 | 0.00 | 0.00 | 0.00 | 73 | 1030.4 |
| 20260507042417 | 61 | 224 | 13.0 | 17.0 | 0.00 | 0.00 | 0.00 | 72 | 1030.4 |
| 20260507041515 | 61 | 227 | 14.0 | 19.0 | 0.00 | 0.00 | 0.00 | 72 | 1030.3 |
| 20260507040516 | 61 | 225 | 14.0 | 18.0 | 0.00 | 0.00 | 0.00 | 72 | 1030.2 |
| 20260507035516 | 62 | 227 | 14.0 | 18.0 | 0.00 | 0.00 | 0.00 | 72 | 1030.0 |
| 20260507034614 | 62 | 237 | 14.0 | 20.0 | 0.00 | 0.00 | 0.00 | 71 | 1029.9 |
| 20260507033617 | 63 | 227 | 14.0 | 24.0 | 0.00 | 0.00 | 0.00 | 70 | 1029.9 |
| 20260507032615 | 63 | 226 | 11.0 | 14.0 | 0.00 | 0.00 | 0.00 | 70 | 1029.7 |
| 20260507031616 | 64 | 227 | 10.0 | 13.0 | 0.00 | 0.00 | 0.00 | 71 | 1029.6 |
| 20260507030714 | 64 | 225 | 11.0 | 15.0 | 0.00 | 0.00 | 0.00 | 70 | 1029.7 |
| 20260507025717 | 64 | 229 | 10.0 | 12.0 | 0.00 | 0.00 | 0.00 | 69 | 1029.7 |
| 20260507023715 | 65 | 220 | 9.0 | 12.0 | 0.00 | 0.00 | 0.00 | 68 | 1029.7 |
| 20260507022716 | 65 | 225 | 11.0 | 13.0 | 0.00 | 0.00 | 0.00 | 67 | 1029.7 |
| 20260507021717 | 65 | 225 | 10.0 | 12.0 | 0.00 | 0.00 | 0.00 | 66 | 1029.8 |
| 20260507020715 | 66 | 224 | 9.0 | 12.0 | 0.00 | 0.00 | 0.00 | 64 | 1029.9 |
| 20260507015715 | 66 | 225 | 11.0 | 16.0 | 0.00 | 0.00 | 0.00 | 64 | 1029.9 |
| 20260507014716 | 66 | 226 | 10.0 | 13.0 | 0.00 | 0.00 | 0.00 | 64 | 1029.9 |
| 20260507013715 | 66 | 225 | 13.0 | 16.0 | 0.00 | 0.00 | 0.00 | 63 | 1029.9 |
| 20260507011716 | 66 | 224 | 13.0 | 17.0 | 0.00 | 0.00 | 0.00 | 62 | 1029.7 |
| 20260507010718 | 66 | 227 | 12.0 | 16.0 | 0.00 | 0.00 | 0.00 | 62 | 1029.9 |
| 20260507005716 | 66 | 226 | 14.0 | 19.0 | 0.00 | 0.00 | 0.00 | 61 | 1029.7 |
| 20260507003716 | 66 | 222 | 15.0 | 21.0 | 0.00 | 0.00 | 0.00 | 60 | 1029.7 |
| 20260507002815 | 67 | 225 | 17.0 | 25.0 | 0.00 | 0.00 | 0.00 | 59 | 1029.5 |
| 20260507001816 | 67 | 221 | 15.0 | 23.0 | 0.00 | 0.00 | 0.00 | 58 | 1029.4 |
| 20260507000817 | 66 | 226 | 16.0 | 21.0 | 0.00 | 0.00 | 0.00 | 59 | 1029.6 |
| 20260507000718 | 66 | 220 | 19.0 | 23.0 | 0.00 | 0.00 | 0.00 | 59 | 1029.5 |
| 20260506235716 | 66 | 223 | 17.0 | 23.0 | 0.00 | 0.00 | 0.00 | 59 | 1029.4 |
| 20260506234717 | 66 | 229 | 16.0 | 21.0 | 0.00 | 0.00 | 0.00 | 59 | 1029.6 |
| 20260506233717 | 66 | 226 | 15.0 | 19.0 | 0.00 | 0.00 | 0.00 | 61 | 1029.5 |
| 20260506232716 | 66 | 227 | 14.0 | 19.0 | 0.00 | 0.00 | 0.00 | 61 | 1029.6 |
| 20260506231815 | 66 | 224 | 17.0 | 28.0 | 0.00 | 0.00 | 0.00 | 62 | 1029.6 |
| 20260506230815 | 66 | 227 | 15.0 | 19.0 | 0.00 | 0.00 | 0.00 | 62 | 1029.8 |
| 20260506225817 | 66 | 224 | 15.0 | 18.0 | 0.00 | 0.00 | 0.00 | 62 | 1029.7 |
| 20260506224915 | 66 | 223 | 16.0 | 22.0 | 0.00 | 0.00 | 0.00 | 62 | 1029.6 |
| 20260506223917 | 66 | 227 | 14.0 | 18.0 | 0.00 | 0.00 | 0.00 | 61 | 1029.8 |
| 20260506222917 | 66 | 225 | 18.0 | 26.0 | 0.00 | 0.00 | 0.00 | 63 | 1029.8 |
| 20260506221917 | 66 | 218 | 15.0 | 21.0 | 0.00 | 0.00 | 0.00 | 64 | 1029.7 |
| 20260506220916 | 66 | 226 | 14.0 | 21.0 | 0.00 | 0.00 | 0.00 | 63 | 1030.0 |
| 20260506215917 | 66 | 225 | 14.0 | 18.0 | 0.00 | 0.00 | 0.00 | 64 | 1029.9 |
| 20260506214916 | 66 | 230 | 15.0 | 19.0 | 0.00 | 0.00 | 0.00 | 64 | 1030.0 |
| 20260506213916 | 66 | 221 | 14.0 | 20.0 | 0.00 | 0.00 | 0.00 | 62 | 1030.1 |
| 20260506213015 | 66 | 218 | 13.0 | 22.0 | 0.00 | 0.00 | 0.00 | 63 | 1030.1 |
| 20260506212016 | 66 | 219 | 15.0 | 22.0 | 0.00 | 0.00 | 0.00 | 64 | 1030.3 |
| 20260506210115 | 65 | 226 | 11.0 | 15.0 | 0.00 | 0.00 | 0.00 | 67 | 1030.2 |
| 20260506205214 | 65 | 213 | 12.0 | 18.0 | 0.00 | 0.00 | 0.00 | 67 | 1030.1 |
| 20260506203215 | 65 | 218 | 14.0 | 18.0 | 0.00 | 0.00 | 0.00 | 67 | 1030.3 |
| 20260506202215 | 64 | 220 | 14.0 | 18.0 | 0.00 | 0.00 | 0.00 | 68 | 1030.3 |
| 20260506200215 | 64 | 212 | 12.0 | 17.0 | 0.00 | 0.00 | 0.00 | 69 | 1030.8 |